Dewpoint
66 68 71 74 74 74 74 75 75 75 75 75 74 74 74 74 73 73 74 73 73 73 73 73 73 73 73 73 73 72 72 73 72 72 73 73 72 72 72 72 72 72 72 72 72 72 72 72 71 70 68 68 70 70 71 71 70 71 70 70 69 69 68 68 68 67 65 64 65 65 65 64 66 65 66 64 65 65 64 61 62 61 61 63 65
66 69 71 73 74 74 75 75 75 75 75 75 74 74 74 74 74 74 73 73 74 73 73 73 73 73 73 72 72 72 72 72 72 72 72 72 72 71 72 72 72 73 73 73 73 72 71 70 70 69 68 68 70 71 71 71 71 70 69 69 68 68 68 67 66 66 66 66 64 64 64 65 65 65 67 64 64 64 63 63 63 60 61 63 63
67 69 71 72 74 74 75 75 75 75 75 75 74 74 74 74 74 74 74 74 74 74 73 73 73 73 72 72 72 72 72 72 72 72 72 72 71 71 70 70 70 70 70 70 70 70 70 70 70 68 68 67 68 70 70 70 70 70 69 68 67 67 67 67 67 67 66 66 66 67 66 66 65 65 66 65 63 63 63 63 62 62 59 63 63
67 69 72 73 74 74 75 75 75 75 74 74 74 74 74 74 74 74 74 74 74 73 73 73 73 72 72 72 72 72 72 72 71 71 71 72 71 70 70 70 69 69 69 70 70 70 70 70 69 68 68 68 67 68 70 70 70 69 69 69 69 68 67 66 66 66 66 67 68 67 65 62 63 65 66 66 64 63 63 62 62 63 64 64 64
67 70 72 72 72 74 74 74 74 74 74 74 74 74 74 74 74 74 74 74 73 73 73 73 72 72 72 72 72 71 71 71 71 71 71 71 71 70 69 69 69 68 70 70 70 69 69 69 68 68 68 68 68 67 69 69 69 69 68 68 68 68 68 67 67 67 67 68 70 67 61 61 61 65 65 66 64 63 63 63 62 62 63 63 63
67 69 70 70 71 73 74 74 74 74 74 74 74 74 74 74 74 74 74 73 73 73 73 72 72 72 72 72 72 71 71 71 71 72 71 72 72 71 68 68 68 68 68 68 68 68 68 69 69 68 68 68 68 68 69 69 69 68 68 68 68 67 67 67 67 68 67 68 69 69 61 60 61 62 65 66 65 63 62 62 62 61 61 61 62
66 67 69 70 70 72 74 74 74 74 74 74 74 74 74 73 73 73 73 73 73 73 73 72 72 72 72 72 72 71 71 71 71 71 72 72 72 72 70 69 69 68 68 67 67 68 68 68 69 69 68 68 68 68 68 68 68 67 67 67 67 67 67 66 68 67 68 68 67 67 61 60 61 61 66 66 65 63 63 61 61 61 61 62 61
65 66 68 68 70 73 74 74 74 74 74 74 73 73 73 73 73 73 73 73 73 73 72 72 72 72 72 72 72 71 71 70 71 71 71 71 71 71 71 69 68 68 68 68 68 68 68 69 69 69 69 68 68 68 68 68 68 67 67 67 67 66 67 66 67 67 68 66 65 63 61 60 61 61 67 67 64 63 63 62 62 62 62 61 61
64 65 67 69 71 73 74 73 73 74 74 74 73 73 74 73 73 73 73 73 73 73 73 72 72 72 72 71 71 71 71 70 70 71 71 71 70 70 71 69 69 69 70 70 70 71 68 69 69 69 69 68 68 68 68 67 67 66 66 66 67 66 66 67 67 68 68 67 61 61 60 60 59 60 66 68 66 64 64 63 62 62 62 62 62
63 66 68 69 71 73 73 73 73 74 74 74 74 74 74 73 73 73 73 73 73 73 72 72 72 72 71 71 71 71 71 71 71 70 70 71 71 70 69 69 68 69 69 69 68 68 69 69 69 69 68 68 68 68 68 69 68 68 67 68 67 68 68 67 68 69 65 60 60 61 62 63 60 61 64 66 66 65 63 62 63 63 62 62 62
65 66 68 69 71 73 73 73 74 74 74 74 74 74 74 74 73 73 73 73 73 72 72 72 72 72 71 71 71 71 71 71 71 71 71 71 71 71 70 69 69 69 69 69 69 69 69 69 69 68 68 69 68 69 69 68 68 68 68 68 69 67 69 68 69 65 65 54 62 63 64 66 61 62 64 65 66 64 63 63 62 62 62 62 61
65 67 69 69 73 73 73 73 73 73 74 73 74 74 73 73 73 73 73 72 72 72 72 72 72 72 71 71 71 70 71 71 70 71 71 71 71 71 70 70 69 69 69 68 68 68 68 69 69 69 69 69 69 69 69 69 69 69 69 68 68 69 69 69 68 66 57 61 62 61 60 60 60 61 65 66 66 65 64 63 63 62 62 62 62
67 67 69 71 71 73 73 73 73 73 73 73 73 73 73 73 73 72 73 73 72 72 72 72 72 72 71 71 71 70 71 71 71 71 71 71 71 71 71 70 69 69 68 68 68 68 69 69 69 69 69 69 69 68 69 69 68 68 68 68 68 68 68 69 66 64 56 59 60 60 61 62 63 65 64 67 66 65 63 62 62 62 62 62 61
69 69 70 69 69 73 72 73 73 73 73 73 73 73 73 73 72 72 72 73 72 72 72 72 72 71 70 70 71 71 71 71 71 71 71 71 71 71 71 70 69 69 68 69 70 70 70 69 69 69 69 69 69 69 68 68 67 67 68 68 69 68 69 69 68 62 57 59 62 61 63 65 64 67 65 64 64 65 64 63 63 62 62 61 62
69 70 69 69 70 71 73 72 72 73 72 72 72 72 72 72 72 72 72 72 73 72 72 72 71 71 70 70 70 70 71 70 71 70 70 71 71 70 70 70 70 69 69 69 69 70 70 69 69 69 69 69 68 68 67 66 67 68 68 68 69 69 69 66 65 58 56 61 62 61 62 64 68 66 64 66 66 65 64 63 63 62 62 62 62
70 69 69 69 69 70 70 73 72 72 72 72 72 72 72 72 72 72 72 72 72 72 72 71 71 70 70 70 70 70 71 70 70 70 70 70 70 70 70 70 70 69 69 69 69 69 69 69 69 69 69 68 68 68 68 68 69 68 69 68 69 69 69 69 66 60 61 61 61 62 62 64 68 65 64 64 64 64 63 64 63 62 62 62 62
69 68 68 68 69 67 69 70 71 72 72 72 72 72 72 72 72 72 72 72 72 72 72 71 71 70 70 70 70 70 70 70 70 70 70 70 69 70 69 70 69 69 69 68 68 69 69 69 69 69 69 69 68 68 68 68 68 68 67 68 67 69 70 70 67 64 63 60 61 61 62 62 66 65 64 64 64 64 64 63 63 62 63 62 62
68 67 67 67 67 67 67 69 70 70 71 72 72 72 72 72 72 72 72 72 72 72 71 71 71 71 70 70 70 70 70 70 70 70 70 71 71 70 69 69 69 69 69 68 68 68 69 69 69 69 69 68 67 68 68 68 68 68 68 68 68 69 70 70 67 63 59 65 61 63 63 66 66 64 64 64 64 64 64 64 62 61 61 61 61
68 67 67 66 65 66 66 68 68 68 70 72 72 72 72 72 72 72 72 72 72 72 71 70 70 71 71 70 70 70 70 70 70 70 71 71 70 70 70 69 69 69 68 67 68 67 67 68 68 68 68 68 68 67 68 68 68 67 68 68 68 70 70 70 67 60 62 63 63 63 64 66 65 64 64 64 64 63 62 64 63 62 62 62 62
67 67 66 64 64 66 67 67 67 70 70 71 71 71 72 72 72 71 71 72 71 71 72 70 70 70 70 70 71 71 70 70 70 71 71 71 70 69 70 69 69 68 68 67 67 67 67 67 68 68 68 68 68 67 67 67 67 67 67 68 69 70 69 68 65 57 62 63 63 63 66 66 64 64 64 64 64 63 63 63 64 63 61 61 62
67 66 66 64 63 64 66 67 68 68 70 70 71 71 70 71 70 71 71 71 71 71 71 69 69 69 68 68 67 69 70 70 70 69 70 70 70 70 69 69 68 68 68 67 67 67 67 67 68 68 68 67 68 68 68 67 67 67 66 67 69 68 67 66 64 61 62 63 64 64 68 66 64 64 64 64 64 63 62 62 63 63 63 63 62
66 65 64 63 63 66 66 68 68 68 69 69 70 70 70 70 70 70 70 69 70 70 70 70 69 69 68 68 67 69 70 71 71 69 69 69 69 70 69 69 68 68 67 67 67 67 67 67 68 68 68 68 68 66 65 67 68 67 67 69 68 67 66 67 62 60 61 62 64 67 68 66 64 64 64 64 63 62 62 63 64 64 63 63 63
65 65 64 63 64 66 69 69 68 68 68 68 68 69 69 70 70 70 68 69 70 71 71 69 68 67 67 67 68 68 69 69 70 69 68 69 69 70 69 69 68 67 66 66 66 66 67 67 67 67 67 68 67 64 62 62 64 67 67 67 66 67 66 66 64 61 61 62 63 67 67 65 65 64 64 63 62 62 62 64 64 64 62 60 61
66 65 65 63 67 66 67 69 69 69 69 69 68 69 68 69 69 69 70 69 69 69 70 69 68 67 68 69 68 68 68 69 69 68 68 68 69 70 69 69 68 67 66 66 66 66 65 66 66 66 66 63 62 61 60 60 62 64 64 65 65 65 64 67 60 61 62 63 64 68 67 65 65 64 64 63 62 62 63 65 65 65 63 62 62
65 64 65 65 67 65 67 68 68 68 68 68 68 68 68 68 69 68 68 68 68 69 69 68 67 67 67 69 68 68 68 69 69 70 69 69 68 68 68 67 68 67 68 66 66 64 66 64 64 65 63 62 60 61 62 63 63 62 63 64 64 64 63 64 65 65 62 63 66 68 67 66 65 65 64 63 62 63 65 66 65 64 63 63 63
65 64 64 64 63 66 68 68 67 67 68 68 68 68 68 68 68 68 68 68 68 68 68 68 67 67 68 68 69 68 69 70 69 69 68 68 68 68 67 69 67 67 67 67 65 66 64 63 63 61 62 62 62 64 63 63 62 63 63 65 66 67 65 63 65 64 63 65 67 68 68 67 66 65 64 63 62 63 65 65 64 64 64 63 63
64 63 63 64 65 65 66 67 67 67 68 68 67 67 68 69 68 68 67 67 67 67 68 69 68 67 67 68 68 68 68 69 67 67 68 68 69 69 70 70 68 69 67 67 68 68 67 68 67 66 64 62 64 62 61 61 62 59 60 60 64 62 64 66 69 65 63 64 67 68 68 68 66 65 64 63 63 63 63 64 64 63 64 63 62
64 64 62 65 66 66 67 67 66 67 67 67 67 67 69 69 68 69 68 67 67 67 69 69 67 68 68 68 69 67 68 68 67 68 66 68 66 69 69 68 68 69 70 69 67 67 68 68 66 66 65 66 64 63 63 57 59 60 62 60 62 63 63 63 65 66 63 64 66 68 68 68 68 66 64 64 63 63 62 62 62 62 63 64 63
63 65 63 65 64 67 66 68 66 66 67 66 66 67 68 68 68 68 68 68 67 67 69 68 68 68 67 68 68 67 67 67 67 66 67 67 68 68 69 69 68 67 68 69 68 68 68 67 67 67 66 66 66 65 64 64 64 60 59 56 58 60 65 65 68 67 68 63 64 67 68 69 68 68 64 64 62 62 63 63 62 61 62 65 63
65 65 65 64 64 65 66 67 66 65 66 66 68 68 68 67 68 68 68 68 68 68 68 68 68 68 68 67 67 68 67 66 66 68 68 67 67 67 67 68 68 67 68 67 69 68 68 67 67 66 66 66 66 66 66 64 63 61 58 57 60 59 64 66 67 67 67 63 64 67 68 68 69 68 67 64 63 62 63 63 62 60 63 64 64
66 65 64 64 65 68 67 67 68 68 67 66 67 68 67 66 68 69 68 68 68 68 68 67 68 68 68 67 67 67 67 68 67 67 66 65 65 65 65 67 67 66 67 67 67 67 68 68 67 66 66 66 66 67 67 66 64 61 61 56 57 60 61 65 66 68 66 67 64 66 67 68 68 68 68 68 66 63 63 63 62 60 61 63 65
67 65 66 64 67 67 67 68 67 68 68 66 66 66 66 67 67 68 68 67 69 68 68 68 67 68 67 67 66 67 67 67 67 65 65 67 66 66 65 67 67 69 68 67 67 67 68 68 67 67 66 66 66 67 67 66 65 63 61 61 61 59 63 66 66 64 66 65 63 63 66 67 68 67 68 67 67 66 64 63 63 62 60 60 65
67 67 66 66 65 66 67 66 66 67 67 66 66 66 66 66 67 69 69 68 68 68 67 67 67 66 66 65 66 66 67 68 68 67 65 66 67 66 67 66 68 67 68 67 67 67 67 67 67 67 68 66 66 67 66 66 66 64 64 62 61 59 65 63 66 64 65 65 67 66 64 65 65 66 67 67 67 67 65 63 63 62 61 61 62
66 66 65 64 64 66 67 67 68 67 67 67 67 67 66 67 68 67 68 68 69 69 67 67 66 67 66 66 66 67 67 67 67 68 67 67 66 66 66 67 68 67 68 68 68 67 67 66 66 66 66 67 66 66 66 66 65 66 66 63 60 61 64 62 66 66 67 65 66 66 67 64 64 64 65 67 67 66 66 65 62 61 62 61 60
66 65 66 65 65 66 66 65 66 66 66 66 65 66 67 68 68 68 69 69 69 67 66 66 66 65 65 67 66 67 67 67 66 68 67 66 67 67 67 67 67 67 66 66 66 67 66 66 66 66 66 66 66 66 65 65 65 64 64 63 64 62 65 63 64 64 66 66 66 67 66 66 67 65 63 64 67 67 66 66 63 62 62 61 60
65 65 66 65 64 66 66 65 65 65 65 66 65 66 67 68 68 67 67 67 66 66 66 67 65 66 66 66 67 67 67 67 67 67 67 65 65 65 67 67 67 67 66 67 66 65 66 66 66 66 66 65 66 66 66 65 64 64 65 64 64 65 65 65 65 65 66 66 66 66 65 65 65 66 68 66 64 65 66 67 66 65 62 61 60
65 64 65 65 64 65 65 65 65 65 64 64 64 65 66 66 65 66 66 67 68 68 68 67 66 66 67 66 67 67 66 67 66 67 67 66 68 67 67 67 67 66 67 66 65 66 66 65 66 66 65 65 64 64 65 65 64 64 65 65 64 64 65 65 64 64 64 65 65 66 65 64 65 66 67 66 67 65 66 67 66 66 66 64 61
64 65 65 65 64 64 64 64 64 64 65 64 63 65 66 66 66 65 66 65 63 63 62 62 65 69 65 65 66 67 67 66 66 67 67 66 66 66 66 66 67 67 67 66 66 65 66 67 65 65 65 64 64 64 64 64 64 63 64 64 65 65 65 66 65 65 63 63 65 65 65 65 66 66 66 66 66 66 65 66 66 66 66 66 65
64 65 65 65 64 64 64 64 64 64 65 65 64 66 66 65 64 62 63 64 63 65 63 62 64 66 66 66 65 66 66 66 67 67 67 67 65 66 66 66 66 67 66 66 65 65 66 67 66 65 66 66 65 65 65 64 64 63 64 64 65 64 65 66 66 65 64 63 64 65 65 65 65 66 66 65 66 65 65 65 65 64 65 66 66
65 65 64 64 64 64 64 64 65 65 65 65 65 65 65 65 64 62 61 63 62 63 62 61 63 63 63 64 65 68 65 67 65 66 68 66 65 65 66 66 65 66 66 65 65 65 65 65 65 64 65 65 65 65 64 64 63 63 63 63 64 65 65 65 65 65 65 65 64 64 64 64 65 66 65 65 66 66 66 66 66 66 65 65 65
64 64 64 64 64 64 64 64 65 65 65 64 65 65 65 65 66 63 61 62 60 65 64 63 62 63 62 60 62 63 64 64 66 66 65 66 67 66 66 66 67 66 66 66 65 65 66 66 65 65 64 64 64 64 65 64 63 62 62 62 64 64 64 63 65 65 65 64 64 65 64 64 64 64 66 66 65 65 66 65 65 65 65 65 65
63 63 63 64 65 64 64 64 64 65 65 65 65 66 65 67 64 61 62 57 59 61 60 61 62 61 62 63 64 62 63 64 64 64 64 65 65 67 66 68 66 66 66 66 66 65 65 65 65 65 65 64 63 64 63 63 62 60 60 60 61 63 63 63 63 64 65 65 64 64 63 64 64 65 66 66 66 66 65 65 64 64 64 65 65
63 63 63 63 64 64 64 64 64 64 64 65 66 66 66 68 68 68 62 57 61 61 57 59 60 58 63 62 65 65 62 60 63 63 63 62 64 64 65 67 66 66 66 66 66 65 65 65 64 64 63 63 64 64 64 63 61 61 61 58 57 57 59 62 62 63 64 64 65 63 63 63 63 65 65 65 65 65 65 65 64 65 65 64 65
63 63 63 63 63 64 63 64 64 65 65 65 65 65 65 67 64 60 61 59 57 59 60 59 58 58 59 60 64 66 64 63 60 55 58 63 66 63 63 64 64 65 65 64 64 65 65 64 65 64 63 61 62 62 64 63 62 61 57 57 58 56 54 57 59 61 63 62 63 63 62 63 63 64 64 64 65 64 64 64 64 65 65 65 65
62 63 63 63 63 63 63 63 64 65 65 64 65 66 67 65 63 62 60 59 61 60 58 59 58 57 58 62 62 64 60 59 60 58 57 61 63 64 64 63 65 65 63 62 63 65 65 64 64 64 62 63 60 62 63 63 63 63 61 57 57 56 54 57 58 59 61 60 61 62 63 63 63 63 64 63 65 63 63 63 64 64 64 65 65
62 63 64 63 63 63 64 64 64 64 63 64 64 66 66 66 63 60 60 60 59 61 60 57 58 60 55 62 60 59 60 62 57 58 58 61 63 63 63 60 63 62 62 61 61 62 63 64 65 64 63 63 62 61 61 63 63 63 62 62 61 58 56 57 57 54 59 60 61 61 62 62 63 63 63 63 63 62 63 63 64 64 64 64 62
64 64 64 63 63 63 64 65 64 64 64 63 64 63 64 65 63 60 61 60 61 61 62 62 59 58 60 60 60 63 58 60 60 60 61 61 62 62 63 63 60 62 62 63 62 60 58 59 62 64 62 63 62 60 60 61 63 62 62 63 63 62 61 58 56 56 54 59 61 59 59 62 62 62 61 62 62 62 62 63 63 63 62 61 60
63 64 63 64 63 64 65 66 65 64 63 62 62 63 63 63 62 62 61 62 62 60 62 61 61 59 59 60 61 63 59 60 62 58 59 61 62 62 63 62 63 57 58 60 59 60 61 61 63 62 63 63 62 61 60 61 60 60 62 62 61 62 63 60 59 59 55 54 55 58 58 59 59 59 60 61 62 62 62 63 63 61 60 59 58
63 63 63 64 65 65 64 65 64 63 63 62 63 63 63 62 63 62 63 60 59 60 58 57 59 60 61 61 62 58 60 60 58 61 62 57 59 62 62 60 58 59 55 57 58 59 61 62 63 64 63 63 63 64 61 60 60 60 60 61 61 61 61 61 61 60 58 54 54 54 55 57 58 59 58 59 61 62 61 60 58 56 56 55 54
62 63 64 64 64 64 63 63 63 63 63 63 62 62 63 62 63 62 62 58 59 57 58 59 60 62 60 59 60 61 60 62 60 59 61 57 59 59 56 57 60 59 56 57 58 60 61 60 61 62 62 63 64 63 62 62 61 61 61 61 60 60 59 60 59 59 58 58 54 52 53 53 53 56 58 58 59 62 60 59 52 50 50 50 49
63 63 63 64 63 63 63 62 62 63 63 64 65 65 65 62 64 63 59 58 58 59 58 58 60 60 58 59 60 61 61 60 62 61 59 58 59 58 60 59 60 60 58 57 59 56 60 61 60 60 61 62 62 62 62 62 61 61 60 60 60 59 58 57 57 58 57 56 54 54 50 49 52 54 53 50 49 50 51 52 49 48 48 47 47